{"data":{"norad_id":57239,"intl_designator":"2023-094X","name":"STARLINK-6330","alt_names":[],"object_type":"PAYLOAD","status":"ACTIVE","operator":null,"country":"US","launch_date":"2023-07-07","launch_site_code":"AFWTR","launch_vehicle":null,"mission":null,"orbit_class":"UNKNOWN","rcs_meters":null,"size_class":null,"mass_kg":null,"dimensions":null,"purposes":["comms"],"wikipedia_slug":null,"has_3d_model":false,"image_url":null,"decayed_at":null,"tle_current":{"epoch":"2026-09-20T13:46:32.031840Z","epoch_age_seconds":117792,"freshness":"FRESH","line1":"1 57239U 23094X   26263.57398185  .00000648  00000+0  33098-4 0  9993","line2":"2 57239  43.0041   9.8418 0001505 264.7074  95.3606 15.27574440176924","mean_motion":15.2757444,"eccentricity":0.0001505,"inclination_deg":43.0041,"raan_deg":9.8418,"arg_perigee_deg":264.7074,"mean_anomaly_deg":95.3606,"bstar":3.3098e-5,"rev_number":17692,"period_min":94.267091821725,"perigee_km":482.03313371727,"apogee_km":484.09835574343,"semimajor_km":6861.2027447303,"source":"CELESTRAK","updated_at":"2026-09-21T09:00:33.588633Z"}}}